STARLINK-2393, 47812

Orbit data source: Space-Track

STARLINK-2393, 47812 is a payload satellite owned by SpaceX/Seattle (US) in LEO that was launched on Thu, 11 Mar 2021 UTC via an FALCON 9 launch vehicle from the Air Force Eastern Test Range (AFETR). Payload-class satellites include a variety of spacecraft equipped with specific instruments for various scientific and technological missions. These include communications satellites like Starlink; space stations such as the ISS; scientific satellites like the Hubble; Earth observation satellites from companies like Planet Labs, Umbra, and HawkEye 360; GPS; miniature CubeSats for education and research; and military/defense satellites.

Loading next visibility...
Identifier
47812, 2021-018AB
Orbit
LEO
Country
Flag of USUS
Related business
Manufacturer
SpaceX/Seattle
Mission
Operational Commercial Communications
Bus & Motor
STARLINK, Unknown motor
Mass
260 kg wet, ~248 kg dry
Launch date (UTC)
2021-03-11 (5 years ago)
Launch vehicle
FALCON 9
Launch site
Air Force Eastern Test Range (AFETR)
Object type
Payload
Rocket body
Debris
Shape & HBR
Box + 1 Pan, 10.1 m
Radar Cross Section
13.562 m², Large (>1 m²)

Expand to show TLE details & history
Last TLE update: 5 hours ago

TLE from 5 hours ago
0 STARLINK-2393
1 47812U 21018AB  25293.16670139  .01081183  00000-0  27063-1 0  9999
2 47812  53.0642 170.5996 0001224  86.8744 210.3465 15.36874270  5635
Epoch: 2025-10-20T04:00Z
TLE epoch observation values (Epoch: 2025-10-20T04:00:03.000Z)
Latitude
-45.49249°
Longitude
32.19663°
Altitude
471.499 km
Speed
7.63 km/s
True Right ascension
08h 04m 19s
True Declination
-45° 18' 48"
Sunlit
Object was in daylight at epoch
Visualization orbit readout
Latitude
Unknown
Longitude
Unknown
Altitude
Unknown
Speed
Unknown
Apparent Right ascension
Unknown
Apparent Declination
Unknown
Sunlit
N/A
Visualization observer readout
Local Sidereal Time
04:24:06
Azimuth
Unknown
Elevation
Unknown
Doppler factor
Unknown
Orbital elements
Apogee altitude
456.468 km
Perigee altitude
454.795 km
Semi-major axis
6,833.769 km
Eccentricity
0.00012
Inclination
53.0642°
RAAN
170.5996°
Arg. of periapsis
86.8744°
True anomaly
210.33941°
Mean anomaly
210.3465°
Eccentric anomaly
210.34296°
Mean motion
3.84196 °/min
Orbital period
93.7 mins
BSTAR
0.027063
Loading maneuver chart data...
Computing Atmospheric mass density...
Loading historical data...
Loading historical data...
Loading historical data...
Loading historical data...
Loading historical data...
Loading historical data...
Loading historical data...

Documentation

Showing up to 5 results
|